Skip Page Navigation
NASA JPL Caltech
NASA Logo - Jet Propulsion Laboratory + View the NASA Portal
+ Near-Earth Object (NEO) Program
Search JPL
JPL Home Earth Solar System Stars & Galaxies Technology
JPL Solar System Dynamics
BODIES ORBITS EPHEMERIDES TOOLS PHYSICAL DATA DISCOVERY FAQ SITE MAP
JPL Small-Body Database Browser
Search: [ help ]  
133527 Fredearly (2003 TZ)
Classification: Main-belt Asteroid          SPK-ID: 2133527
Ephemeris | Orbit Diagram | Orbital Elements | Physical Parameters | Discovery Circumstances | Close-Approach Data ]

[ show orbit diagram ]
Orbital Elements at Epoch 2457400.5 (2016-Jan-13.0) TDB
Reference: JPL 8 (heliocentric ecliptic J2000)
 Element Value Uncertainty (1-sigma)   Units 
e .0969835747533771 9.1111e-08  
a 3.147754142531538 4.7152e-08 au
q 2.842473693344078 3.0248e-07 au
i 8.873309307840358 1.3049e-05 deg
node 14.08718236460827 4.7913e-05 deg
peri 64.62741321995706 8.5153e-05 deg
M 16.16944374690347 6.7275e-05 deg
tp 2457308.879593966168
(2015-Oct-13.37959397)
0.00038129 JED
period 2039.856576915079
5.58
4.5835e-05
1.255e-07
d
yr
n .17648299594888 3.9655e-09 deg/d
Q 3.453034591718998 5.1725e-08 au
  Orbit Determination Parameters
   # obs. used (total)      287  
   data-arc span      6210 days (17.00 yr)  
   first obs. used      1998-12-17  
   last obs. used      2015-12-18  
   planetary ephem.      DE431  
   SB-pert. ephem.      SB431-BIG16  
   condition code      0  
   fit RMS      .59394  
   data source      ORB  
   producer      Otto Matic  
   solution date      2016-Jan-04 17:39:14  

Additional Information
 Earth MOID = 1.87105 au 
 Jupiter MOID = 1.83624 au 
 T_jup = 3.183 
[ show covariance matrix ]

Ephemeris | Orbit Diagram | Orbital Elements | Physical Parameters | Discovery Circumstances | Close-Approach Data ]

Physical Parameter Table
Parameter Symbol Value Units Sigma Reference Notes
absolute magnitude H 15.1 mag n/a MPO310089  

133527 Fredearly           Discovered 2003 Oct. 5 by J. W. Young at Table Mountain Observatory.
Pearl (1888-1958) and Frederick (1889-1974) Young were the paternal grandparents of the discoverer.
NOTE: some special characters may not display properly (any characters within {} are an attempt to place the proper accent above a character)
Reference: 20080520/MPCPages.arcLast Updated: 2008-05-22

[ show close-approach data ]
Ephemeris | Orbit Diagram | Orbital Elements | Physical Parameters | Discovery Circumstances | Close-Approach Data ]
ABOUT SSD CREDITS/AWARDS PRIVACY/COPYRIGHT GLOSSARY LINKS
FirstGov 2016-Feb-10 15:27 UT
(server date/time)  
NASA Home Page
Site Manager:   Ryan S. Park
Webmaster  Alan B. Chamberlin